FW6766 Weather Reports


time (UTC)temp
C
wind
direction
speed
KPH
gust
KPH
rain 1hr
cm
rain 24hr
cm
rain mn
cm
humidity
%
barometer
mb
20260504151016 18 0 1.6 4.8 0.00 0.00 0.00 48 1019.6
20260504141016 15 0 1.6 4.8 0.00 0.00 0.00 64 1019.5
20260504081018 7 0.0 0.0 0.00 0.00 0.00 84 1018.8
20260504050016 9 0.0 0.0 0.00 0.00 0.00 76 1019.7
20260504045017 10 0.0 0.0 0.00 0.00 0.00 77 1019.7
20260504044018 10 0.0 0.0 0.00 0.00 0.00 77 1019.7
20260504043037 10 0.0 0.0 0.00 0.00 0.00 76 1019.6
20260504042016 10 0.0 0.0 0.00 0.00 0.00 76 1019.6
20260504041017 10 0.0 0.0 0.00 0.00 0.00 76 1019.7
20260504040016 10 0.0 0.0 0.00 0.00 0.00 75 1019.6
20260504035036 10 0.0 0.0 0.00 0.00 0.00 75 1019.5
20260504034017 10 0.0 0.0 0.00 0.00 0.00 74 1019.7
20260504033017 10 0.0 0.0 0.00 0.00 0.00 74 1019.7
20260504032016 10 0.0 0.0 0.00 0.00 0.00 74 1019.6
20260504031016 11 0.0 1.6 0.00 0.00 0.00 73 1019.6
20260504030036 11 0.0 0.0 0.00 0.00 0.00 72 1019.6
20260504025016 11 0.0 0.0 0.00 0.00 0.00 71 1019.5
20260504024036 11 0.0 0.0 0.00 0.00 0.00 70 1019.4
20260504023036 11 0.0 0.0 0.00 0.00 0.00 69 1019.3
20260504022017 11 0.0 0.0 0.00 0.00 0.00 68 1019.3
20260504021016 11 0.0 0.0 0.00 0.00 0.00 66 1019.1
20260504020016 12 0.0 0.0 0.00 0.00 0.00 65 1019.0
20260504015016 12 0.0 0.0 0.00 0.00 0.00 64 1018.8
20260504014016 12 0.0 1.6 0.00 0.00 0.00 62 1018.5
20260504013016 13 0.0 1.6 0.00 0.00 0.00 60 1018.3
20260504012016 13 0.0 0.0 0.00 0.00 0.00 56 1018.4
20260504011017 13 0.0 0.0 0.00 0.00 0.00 55 1018.4
20260504010037 13 0.0 0.0 0.00 0.00 0.00 54 1018.2
20260504005016 13 0.0 0.0 0.00 0.00 0.00 53 1018.1
20260504004017 14 0.0 0.0 0.00 0.00 0.00 52 1017.8
20260504003016 15 0.0 0.0 0.00 0.00 0.00 50 1017.7
20260504002016 15 0.0 0.0 0.00 0.00 0.00 50 1017.8
20260504001017 16 0.0 3.2 0.00 0.00 0.00 49 1017.8
20260504000016 16 0.0 0.0 0.00 0.00 0.00 47 1017.7
20260503235016 17 0.0 1.6 0.00 0.00 0.00 46 1017.7
20260503234016 17 0.0 1.6 0.00 0.00 0.00 45 1017.7
20260503233016 18 0 1.6 4.8 0.00 0.00 0.00 43 1017.7
20260503232016 18 0 1.6 8.0 0.00 0.00 0.00 40 1017.9
20260503231016 18 0 4.8 12.9 0.00 0.00 0.00 37 1018.0
20260503230016 18 0 3.2 8.0 0.00 0.00 0.00 38 1018.0
20260503225036 19 0 1.6 3.2 0.00 0.00 0.00 39 1018.0
20260503224016 20 0 3.2 8.0 0.00 0.00 0.00 36 1018.1
20260503223015 20 0 1.6 8.0 0.00 0.00 0.00 38 1018.0
20260503222015 20 0 1.6 12.9 0.00 0.00 0.00 38 1018.0
20260503221016 20 0 1.6 4.8 0.00 0.00 0.00 41 1018.1
20260503220036 20 0 3.2 8.0 0.00 0.00 0.00 37 1018.2
20260503215016 21 0 3.2 9.7 0.00 0.00 0.00 36 1018.3
20260503214015 21 0 3.2 8.0 0.00 0.00 0.00 32 1018.3
20260503213016 21 0 3.2 6.4 0.00 0.00 0.00 37 1018.4
20260503212055 21 0 4.8 9.7 0.00 0.00 0.00 34 1018.6
20260503211015 21 0 1.6 6.4 0.00 0.00 0.00 35 1018.6
20260503210015 21 0 4.8 14.5 0.00 0.00 0.00 33 1018.8
20260503205015 21 0 3.2 9.7 0.00 0.00 0.00 34 1018.8
20260503204016 21 0 3.2 8.0 0.00 0.00 0.00 33 1018.9
20260503203037 21 0 3.2 9.7 0.00 0.00 0.00 36 1019.2
20260503202017 21 203 4.8 9.7 0.00 0.00 0.00 35 1019.2
20260503201017 21 135 3.2 14.5 0.00 0.00 0.00 37 1019.4
20260503200017 21 135 4.8 12.9 0.00 0.00 0.00 34 1019.5
20260503195017 21 180 3.2 8.0 0.00 0.00 0.00 35 1019.7
20260503194018 21 203 4.8 8.0 0.00 0.00 0.00 35 1019.8
20260503193018 21 0 3.2 11.3 0.00 0.00 0.00 35 1020.1
20260503192018 21 0 4.8 9.7 0.00 0.00 0.00 34 1020.2
20260503191017 21 0 3.2 12.9 0.00 0.00 0.00 35 1020.3
20260503190017 21 0 3.2 8.0 0.00 0.00 0.00 35 1020.4
20260503185017 21 0 4.8 8.0 0.00 0.00 0.00 33 1020.6
20260503184037 21 0 1.6 4.8 0.00 0.00 0.00 37 1020.7
20260503183018 21 0 3.2 8.0 0.00 0.00 0.00 39 1020.7
20260503182017 21 0 3.2 8.0 0.00 0.00 0.00 37 1020.9
20260503181017 20 0 4.8 8.0 0.00 0.00 0.00 39 1020.7
20260503180017 20 0 3.2 9.7 0.00 0.00 0.00 38 1020.8
20260503175017 20 0 4.8 8.0 0.00 0.00 0.00 37 1020.9
20260503174017 20 0 4.8 8.0 0.00 0.00 0.00 42 1021.1
20260503173017 20 0 1.6 6.4 0.00 0.00 0.00 39 1021.3
20260503172017 20 0 3.2 8.0 0.00 0.00 0.00 36 1021.4
20260503171017 20 0 3.2 8.0 0.00 0.00 0.00 37 1021.5